EN

Hourly Weather Aalsmeer

Today, 4 December, Friday

Time Temperature Precipitation Wind Pressure Humidity
00:00 +4°C° 0.5 mm 8 mps 735 mmHg 88%
01:00 +5°C° 0.6 mm 8 mps 734 mmHg 87%
02:00 +5°C° 0.6 mm 9 mps 733 mmHg 87%
03:00 +5°C° 0.6 mm 9 mps 732 mmHg 87%
04:00 +5°C° 0.3 mm 9 mps 732 mmHg 83%
05:00 +6°C° 0.3 mm 9 mps 732 mmHg 80%
06:00 +6°C° 0.3 mm 9 mps 732 mmHg 76%
07:00 +5°C° 0 mm 9 mps 733 mmHg 76%
08:00 +5°C° 0 mm 9 mps 733 mmHg 76%
09:00 +4°C° 0 mm 8 mps 734 mmHg 76%
10:00 +4°C° 0 mm 8 mps 735 mmHg 77%
11:00 +5°C° 0 mm 8 mps 736 mmHg 77%
12:00 +5°C° 0 mm 7 mps 737 mmHg 78%
13:00 +5°C° 0 mm 7 mps 737 mmHg 76%
14:00 +4°C° 0 mm 7 mps 737 mmHg 74%
15:00 +4°C° 0 mm 7 mps 738 mmHg 73%
16:00 +4°C° 0 mm 6 mps 739 mmHg 74%
17:00 +3°C° 0 mm 6 mps 739 mmHg 75%
18:00 +3°C° 0 mm 6 mps 740 mmHg 77%
19:00 +3°C° 0 mm 5 mps 740 mmHg 79%
20:00 +2°C° 0 mm 5 mps 741 mmHg 81%
21:00 +3°C° 0 mm 4 mps 742 mmHg 84%
22:00 +1°C° 0 mm 4 mps 742 mmHg 85%
23:00 +1°C° 0 mm 4 mps 743 mmHg 87%

Tomorrow, 5 December, Saturday

Time Temperature Precipitation Wind Pressure Humidity
00:00 +1°C° 0 mm 4 mps 743 mmHg 88%
01:00 +1°C° 0 mm 4 mps 744 mmHg 89%
02:00 0°C° 0 mm 4 mps 744 mmHg 90%
03:00 0°C° 0 mm 4 mps 744 mmHg 90%
04:00 0°C° 0 mm 4 mps 744 mmHg 90%
05:00 +1°C° 0 mm 3 mps 745 mmHg 90%
06:00 +1°C° 0 mm 3 mps 745 mmHg 90%
07:00 +1°C° 0 mm 3 mps 746 mmHg 90%
08:00 +1°C° 0 mm 3 mps 746 mmHg 89%
09:00 +3°C° 0 mm 2 mps 746 mmHg 89%
10:00 +3°C° 0 mm 2 mps 746 mmHg 86%
11:00 +4°C° 0 mm 2 mps 747 mmHg 82%
12:00 +6°C° 0 mm 1 mps 747 mmHg 79%
13:00 +5°C° 0 mm 2 mps 747 mmHg 81%
14:00 +5°C° 0 mm 2 mps 747 mmHg 84%
15:00 +4°C° 0 mm 2 mps 748 mmHg 86%
16:00 +4°C° 0 mm 2 mps 748 mmHg 87%
17:00 +3°C° 0 mm 2 mps 748 mmHg 88%
18:00 +3°C° 0 mm 2 mps 749 mmHg 89%
19:00 +3°C° 0 mm 2 mps 749 mmHg 89%
20:00 +2°C° 0 mm 2 mps 749 mmHg 89%
21:00 +2°C° 0 mm 2 mps 749 mmHg 90%
22:00 +2°C° 0 mm 2 mps 750 mmHg 90%
23:00 +2°C° 0 mm 2 mps 750 mmHg 90%

Day after tomorrow, 6 December, Sunday

Time Temperature Precipitation Wind Pressure Humidity
00:00 +1°C° 0 mm 2 mps 750 mmHg 91%
01:00 +1°C° 0 mm 2 mps 750 mmHg 91%
02:00 +1°C° 0 mm 2 mps 750 mmHg 91%
03:00 +1°C° 0 mm 2 mps 750 mmHg 92%
04:00 +1°C° 0 mm 2 mps 751 mmHg 92%
05:00 +1°C° 0 mm 2 mps 751 mmHg 92%
06:00 +1°C° 0 mm 2 mps 751 mmHg 92%
07:00 0°C° 0 mm 3 mps 751 mmHg 90%
08:00 +1°C° 0 mm 3 mps 752 mmHg 89%
09:00 +1°C° 0 mm 3 mps 752 mmHg 88%
10:00 +2°C° 0 mm 3 mps 752 mmHg 85%
11:00 +3°C° 0 mm 3 mps 752 mmHg 82%
12:00 +4°C° 0 mm 3 mps 752 mmHg 79%
13:00 +3°C° 0 mm 3 mps 752 mmHg 82%
14:00 +3°C° 0 mm 3 mps 752 mmHg 84%
15:00 +3°C° 0 mm 3 mps 751 mmHg 86%
16:00 +2°C° 0 mm 3 mps 752 mmHg 87%
17:00 +2°C° 0 mm 3 mps 752 mmHg 87%
18:00 +2°C° 0 mm 3 mps 752 mmHg 88%
19:00 +2°C° 0 mm 3 mps 752 mmHg 88%
20:00 +2°C° 0 mm 3 mps 751 mmHg 87%
21:00 +2°C° 0 mm 3 mps 751 mmHg 87%
22:00 +3°C° 0.2 mm 4 mps 751 mmHg 88%
23:00 +3°C° 0.2 mm 4 mps 750 mmHg 89%

7 December, Monday

Time Temperature Precipitation Wind Pressure Humidity
00:00 +4°C° 0.2 mm 4 mps 750 mmHg 90%
01:00 +3°C° 0.8 mm 5 mps 749 mmHg 91%
02:00 +4°C° 0.8 mm 6 mps 748 mmHg 91%
03:00 +4°C° 0.8 mm 7 mps 748 mmHg 92%
04:00 +4°C° 0.7 mm 7 mps 748 mmHg 92%
05:00 +5°C° 0.7 mm 7 mps 747 mmHg 92%
06:00 +5°C° 0.7 mm 7 mps 747 mmHg 92%
07:00 +5°C° 0.8 mm 7 mps 747 mmHg 92%
08:00 +5°C° 0.8 mm 6 mps 747 mmHg 93%
09:00 +5°C° 0.8 mm 6 mps 747 mmHg 93%
10:00 +6°C° 0.6 mm 5 mps 747 mmHg 93%
11:00 +6°C° 0.6 mm 4 mps 746 mmHg 93%
12:00 +6°C° 0.6 mm 4 mps 746 mmHg 94%
13:00 +7°C° 0.5 mm 3 mps 746 mmHg 94%
14:00 +7°C° 0.5 mm 3 mps 746 mmHg 94%
15:00 +7°C° 0.5 mm 3 mps 746 mmHg 94%
16:00 +6°C° 0.6 mm 4 mps 746 mmHg 93%
17:00 +6°C° 0.6 mm 4 mps 746 mmHg 93%
18:00 +6°C° 0.6 mm 5 mps 746 mmHg 93%
19:00 +5°C° 1.3 mm 6 mps 746 mmHg 91%
20:00 +5°C° 1.3 mm 7 mps 746 mmHg 90%
21:00 +5°C° 1.3 mm 7 mps 747 mmHg 88%
22:00 +5°C° 1.2 mm 7 mps 747 mmHg 87%
23:00 +5°C° 1.2 mm 7 mps 747 mmHg 86%

8 December, Tuesday

Time Temperature Precipitation Wind Pressure Humidity
00:00 +4°C° 1.2 mm 7 mps 747 mmHg 85%
01:00 +4°C° 0.2 mm 7 mps 747 mmHg 84%
02:00 +4°C° 0.2 mm 6 mps 748 mmHg 83%
03:00 +4°C° 0.2 mm 6 mps 748 mmHg 82%
04:00 +3°C° 0.1 mm 6 mps 749 mmHg 83%
05:00 +3°C° 0.1 mm 6 mps 749 mmHg 85%
06:00 +2°C° 0.1 mm 5 mps 750 mmHg 86%
07:00 +2°C° 0 mm 5 mps 750 mmHg 87%
08:00 +2°C° 0 mm 5 mps 751 mmHg 88%
09:00 +3°C° 0 mm 4 mps 751 mmHg 90%
10:00 +3°C° 0 mm 4 mps 751 mmHg 87%
11:00 +4°C° 0 mm 4 mps 752 mmHg 84%
12:00 +4°C° 0 mm 4 mps 752 mmHg 81%
13:00 +4°C° 0 mm 3 mps 752 mmHg 82%
14:00 +4°C° 0 mm 3 mps 753 mmHg 84%
15:00 +4°C° 0 mm 3 mps 753 mmHg 85%
16:00 +3°C° 0 mm 3 mps 753 mmHg 85%
17:00 +4°C° 0 mm 2 mps 753 mmHg 84%
18:00 +4°C° 0 mm 2 mps 753 mmHg 84%
19:00 +4°C° 0 mm 2 mps 754 mmHg 84%
20:00 +4°C° 0 mm 2 mps 754 mmHg 85%
21:00 +3°C° 0 mm 2 mps 754 mmHg 86%
22:00 +3°C° 0 mm 2 mps 754 mmHg 87%
23:00 +3°C° 0 mm 2 mps 755 mmHg 87%

9 December, Wednesday

Time Temperature Precipitation Wind Pressure Humidity
00:00 +2°C° 0 mm 2 mps 755 mmHg 88%
01:00 +2°C° 0 mm 2 mps 755 mmHg 88%
02:00 +2°C° 0 mm 2 mps 755 mmHg 89%
03:00 +2°C° 0 mm 2 mps 755 mmHg 90%
04:00 +1°C° 0 mm 2 mps 755 mmHg 90%
05:00 +1°C° 0 mm 2 mps 755 mmHg 90%
06:00 +1°C° 0 mm 2 mps 755 mmHg 90%
07:00 +1°C° 0 mm 2 mps 756 mmHg 90%
08:00 +2°C° 0 mm 2 mps 756 mmHg 90%
09:00 +2°C° 0 mm 2 mps 756 mmHg 89%
10:00 +3°C° 0 mm 2 mps 756 mmHg 86%
11:00 +4°C° 0 mm 2 mps 756 mmHg 83%
12:00 +4°C° 0 mm 2 mps 756 mmHg 80%
13:00 +4°C° 0 mm 2 mps 756 mmHg 82%
14:00 +4°C° 0 mm 2 mps 756 mmHg 84%
15:00 +3°C° 0 mm 2 mps 757 mmHg 86%
16:00 +3°C° 0 mm 2 mps 757 mmHg 87%
17:00 +2°C° 0 mm 2 mps 757 mmHg 88%
18:00 +2°C° 0 mm 2 mps 757 mmHg 89%
19:00 +2°C° 0 mm 2 mps 757 mmHg 89%
20:00 +3°C° 0 mm 1 mps 758 mmHg 89%
21:00 +3°C° 0 mm 1 mps 758 mmHg 89%
22:00 +3°C° 0 mm 1 mps 758 mmHg 89%
23:00 +2°C° 0 mm 1 mps 758 mmHg 89%
Show more